RH
72 76 66 58 51 39 34 24 26 22 22 25 32 32 22 23 22 15 8 6 6 7 10 13 14 15 13 13 17 16 15 14 14 13 14 18 21 24 30 28 30 37 39 41 40 37 41
79 72 65 58 51 33 26 21 22 22 23 24 28 36 15 20 17 14 10 10 11 10 10 12 14 14 13 18 18 16 16 15 15 13 15 17 24 24 26 28 30 31 36 40 44 42 44
74 68 60 53 45 26 20 20 20 24 26 24 24 37 14 16 17 15 12 12 12 12 11 12 14 15 21 21 17 16 14 15 17 15 15 18 21 22 25 28 31 34 36 38 42 45 47
72 65 61 49 39 21 18 20 21 28 32 31 24 36 24 14 12 12 12 11 8 9 10 13 15 15 18 18 18 17 16 18 20 17 15 18 20 20 23 28 28 29 30 35 28 49 46
71 66 64 50 36 19 18 20 24 32 36 36 35 30 36 14 13 10 10 9 11 16 15 16 18 17 18 18 21 17 19 20 20 21 21 21 20 20 22 34 36 36 34 30 31 47 48
73 73 69 60 44 22 18 23 29 35 38 38 36 34 34 32 14 12 10 10 15 15 13 19 19 19 16 19 26 20 18 20 20 19 20 18 19 32 37 38 40 32 33 31 34 31 53
77 78 74 65 55 34 19 26 32 38 40 38 36 34 34 35 22 12 15 16 22 18 18 21 21 21 18 21 24 21 18 19 19 20 30 27 37 31 27 28 26 27 31 34 34 29 32
79 77 72 67 60 49 21 25 33 40 41 39 36 34 34 36 33 29 15 11 18 25 25 24 23 21 23 20 26 22 20 19 20 29 30 36 29 24 24 24 27 26 32 37 34 30 36
81 76 76 70 65 57 38 21 32 41 42 39 37 35 34 36 36 34 15 17 22 22 24 26 27 26 26 22 26 26 21 24 24 27 31 32 24 23 27 28 28 30 33 34 36 37 41
79 74 76 73 64 58 48 24 28 41 42 40 39 36 33 33 35 35 30 20 24 22 50 34 29 29 24 24 26 28 22 24 24 26 29 28 24 26 29 26 26 34 28 32 42 46 52
79 74 71 72 67 58 43 38 21 35 44 41 40 37 33 32 38 38 34 17 17 24 56 30 30 31 26 26 28 33 23 22 26 28 34 35 27 27 28 25 24 33 30 40 39 48 57
80 76 75 73 72 67 45 43 24 26 42 42 40 39 36 35 39 37 26 16 19 63 49 36 34 37 29 30 31 32 23 26 26 31 38 30 27 28 25 24 27 30 39 52 68 71 73
80 75 75 71 74 70 61 33 37 22 34 43 41 40 38 37 38 34 21 28 70 54 37 37 40 39 38 37 36 37 30 37 46 44 57 51 39 27 24 30 31 41 56 71 61 76 61
78 76 71 77 79 76 67 55 35 27 24 41 42 40 38 39 38 35 30 51 53 39 48 40 41 40 38 37 37 43 34 38 32 47 63 58 60 32 25 26 32 37 47 65 53 70 62
83 80 78 83 85 80 74 68 43 31 23 32 42 40 40 37 40 42 49 58 46 48 41 42 40 40 42 38 38 45 33 38 32 39 51 55 55 34 26 26 31 40 49 40 52 57 80
87 86 85 86 82 81 78 72 52 31 26 27 41 41 46 38 44 49 48 50 46 35 38 37 43 40 44 42 41 46 46 34 33 32 36 45 69 46 31 29 31 33 37 58 68 68 73
83 86 88 93 92 89 82 61 41 34 29 26 42 42 52 41 47 42 58 55 41 34 36 42 46 45 47 42 44 48 48 36 33 34 32 43 58 57 52 47 51 44 49 43 53 65 72
86 88 90 92 94 96 87 72 43 28 30 27 43 53 52 44 53 63 57 44 34 35 37 38 37 44 47 42 45 51 56 43 28 32 45 40 60 76 69 49 32 38 48 46 62 70 63
91 81 82 90 97 94 81 50 38 35 40 35 50 50 51 50 57 69 51 42 39 41 42 42 46 45 37 42 50 52 49 39 28 37 49 48 71 89 68 53 47 43 41 39 41 51 80
73 70 68 66 74 57 48 41 40 42 55 40 52 74 55 54 54 58 55 53 50 42 42 41 45 39 41 45 46 49 50 43 31 33 36 44 76 77 75 62 63 75 69 49 55 82 79
87 78 69 64 60 56 54 50 44 48 66 49 61 68 76 75 63 58 58 54 57 52 44 41 44 46 48 56 51 56 51 49 44 35 46 55 74 79 73 71 75 74 75 70 78 70 80
86 90 94 95 87 79 75 72 60 47 62 59 57 75 72 67 64 63 62 60 63 55 50 53 52 50 53 55 52 55 57 61 62 55 49 53 74 78 87 76 75 82 72 72 71 70 71
99 92 91 87 89 92 92 85 74 61 68 63 73 80 74 72 71 72 72 63 58 57 49 48 49 54 61 52 42 39 44 44 46 63 58 71 68 82 86 75 81 89 73 70 72 72 68
95 95 88 99 95 87 85 86 83 74 72 71 76 87 79 89 84 78 62 65 62 62 58 53 54 56 49 49 52 57 62 65 70 71 56 69 74 96 96 92 94 54 55 56 66 67 70
94 95 98 98 92 100 98 98 91 84 78 73 80 94 88 96 87 82 75 72 64 60 64 58 53 54 53 58 71 83 78 69 70 82 86 66 70 99 98 93 70 64 57 62 67 60 80
86 93 96 100 99 100 99 100 99 86 82 83 81 88 98 98 90 74 76 68 78 78 75 66 63 63 62 74 86 99 98 83 81 67 64 79 84 96 99 97 91 62 55 51 51 79 88
64 79 85 93 99 100 100 100 100 98 92 89 87 91 99 100 91 79 84 74 68 71 78 73 72 69 69 91 99 99 98 73 96 81 83 93 98 97 95 97 98 65 52 56 94 83 92
13 34 57 76 88 93 98 100 100 100 100 97 86 90 92 99 94 88 79 82 77 72 76 71 82 87 87 100 98 94 99 90 95 78 77 77 97 97 98 98 96 66 78 94 97 99 100
10 10 12 28 52 74 82 88 100 100 100 100 99 97 97 100 98 97 91 92 91 92 98 88 79 79 81 98 99 99 100 100 100 97 70 89 82 97 98 86 88 94 99 100 100 99 98
Wind_Speed
11 12 16 18 20 21 21 21 20 19 18 17 17 17 13 12 10 10 10 11 11 11 10 8 4 4 6 8 9 12 10 9 7 8 10 8 10 4 4 3 3 4 2 1 3 2 1
11 14 17 20 22 22 22 22 20 19 18 17 17 17 12 11 10 10 10 11 11 11 8 6 7 8 6 8 12 13 9 8 8 9 12 12 7 8 7 4 4 2 2 2 2 2 2
13 15 18 20 23 23 23 22 20 19 18 18 16 16 14 10 8 8 9 9 9 9 8 9 7 7 19 10 16 12 9 7 8 8 10 12 10 4 3 3 3 3 3 4 2 2 1
14 16 19 21 24 24 22 21 20 18 18 18 16 15 14 10 8 8 8 8 9 6 4 2 3 5 6 11 16 11 8 8 7 7 6 7 6 7 5 2 5 5 4 5 2 2 1
14 16 18 22 24 24 22 21 19 18 18 17 16 14 12 7 6 7 7 6 4 5 5 4 4 3 3 9 15 14 8 6 4 4 6 4 3 6 5 4 4 7 1 2 8 2 1
12 15 17 21 24 24 22 21 19 18 17 17 16 13 8 9 3 4 4 5 8 3 1 2 6 3 7 7 15 16 5 6 4 2 2 5 5 4 5 5 0 3 3 4 5 3 4
11 14 16 19 23 24 23 20 18 17 17 17 16 13 9 7 3 3 5 2 4 2 14 9 7 4 6 7 7 16 7 3 5 6 4 6 7 2 2 1 1 2 3 5 4 3 4
9 12 15 18 21 24 23 20 18 17 17 17 16 14 11 4 7 2 8 5 1 6 8 8 7 6 7 8 5 17 10 3 7 3 4 5 2 2 3 2 1 3 3 5 6 3 1
9 11 15 18 19 22 23 20 18 16 16 16 16 13 12 6 6 7 2 3 8 4 3 3 6 5 6 5 5 13 13 4 6 4 4 4 2 4 1 2 5 3 4 3 5 6 1
8 11 14 17 20 22 22 21 18 16 16 16 16 13 12 9 4 8 2 7 6 2 4 5 4 4 5 4 2 9 11 5 5 2 1 1 3 2 2 1 2 5 2 4 5 1 3
7 10 12 15 18 21 22 21 19 16 16 16 16 14 12 12 8 6 2 6 3 2 3 1 3 4 4 3 5 8 7 4 3 3 2 3 3 3 2 2 2 7 3 4 2 1 2
9 11 13 14 17 19 21 21 20 17 16 16 16 14 11 12 8 5 4 7 3 5 4 3 3 6 4 6 5 7 5 5 2 2 2 2 2 2 2 3 2 6 2 2 3 2 1
10 13 15 16 18 18 20 21 20 18 16 16 16 14 9 11 8 3 7 5 5 4 2 1 2 3 1 3 4 6 4 6 3 4 6 6 2 2 1 3 2 7 5 4 5 4 4
11 13 14 14 18 19 20 22 21 20 17 15 15 14 7 10 7 2 4 4 2 2 3 1 1 3 1 4 1 5 2 2 2 3 2 3 6 1 1 1 2 2 2 3 4 3 5
13 14 14 17 19 19 19 22 23 21 19 15 14 12 3 9 6 1 2 3 4 3 2 1 1 2 3 0 1 3 0 4 3 2 2 2 5 2 1 1 3 2 0 2 1 1 2
16 16 16 17 19 20 19 23 23 22 20 17 15 11 2 8 5 1 3 4 3 2 3 1 3 2 2 3 3 3 2 3 3 5 2 4 5 2 1 1 1 2 4 1 2 3 5
18 19 19 20 21 21 22 21 24 23 21 18 14 5 2 8 5 1 3 6 4 5 5 4 5 3 5 2 2 2 3 3 6 5 3 4 3 5 2 4 5 1 1 1 2 4 3
18 19 19 20 21 20 22 23 24 23 21 16 8 4 4 6 1 1 2 4 3 5 4 5 2 5 6 5 3 4 6 5 10 9 5 5 4 5 11 2 2 2 4 5 4 3 3
16 16 18 18 17 18 22 23 22 22 20 17 12 5 5 4 1 2 3 2 4 4 4 4 4 6 3 4 3 5 3 2 12 8 6 5 2 5 7 3 1 3 5 6 2 2 11
19 20 19 20 20 20 19 19 18 18 17 14 6 3 2 3 2 3 2 4 3 5 3 4 2 2 2 3 5 3 3 2 10 7 5 8 4 8 8 8 3 5 7 7 9 6 7
19 20 17 18 17 15 15 15 14 14 12 10 3 2 2 3 2 2 3 2 3 3 5 6 2 7 7 4 3 5 5 3 4 5 6 6 7 6 13 15 10 18 20 16 17 20 15
21 26 26 24 21 20 19 18 17 13 11 8 4 3 2 5 6 2 2 4 6 3 7 5 6 3 8 7 9 7 5 5 7 3 7 4 5 3 6 12 18 20 20 22 22 24 21
19 18 19 20 22 21 21 22 20 15 11 6 8 9 5 4 2 1 4 5 4 3 8 7 11 4 5 17 24 23 15 13 11 8 9 6 5 3 12 2 5 12 16 19 6 5 12
21 22 23 19 21 20 18 18 18 16 15 14 12 8 4 4 4 5 3 4 4 6 4 3 10 5 6 6 6 10 15 22 21 22 20 7 5 3 6 3 12 6 2 5 8 7 9
22 22 22 21 20 20 19 17 16 16 15 15 16 13 6 3 7 11 14 12 16 17 9 11 19 14 9 2 3 6 3 5 7 5 11 21 11 4 5 8 13 15 5 4 6 5 4
22 22 24 22 21 20 19 20 16 14 14 16 16 17 9 3 7 18 8 14 4 4 4 7 10 7 8 3 2 3 4 4 5 5 1 1 9 7 3 5 8 0 1 2 2 5 5
21 21 21 21 23 23 21 21 20 16 15 16 18 16 14 9 16 22 8 3 3 2 3 5 2 3 9 3 4 5 5 5 5 7 5 3 3 13 15 10 5 1 2 3 2 2 6
21 22 21 22 21 21 22 22 20 19 18 19 20 19 21 11 18 19 14 8 14 15 6 4 2 4 2 3 3 4 4 3 3 3 4 5 4 4 4 4 7 3 3 4 2 6 10
22 22 22 22 22 23 22 21 22 22 23 21 23 21 20 24 13 7 15 22 29 27 20 9 7 2 7 2 3 2 3 2 3 4 1 4 5 2 7 4 2 6 3 2 4 2 2
Wind_Direction
54 39 30 25 19 15 14 16 18 20 23 25 25 31 51 62 78 91 94 101 107 111 114 112 84 33 49 60 18 4 10 18 33 32 47 58 60 64 75 63 56 76 160 147 175 177 217
46 37 30 24 18 16 16 19 20 23 26 26 27 32 51 67 78 89 99 105 107 111 104 81 78 49 63 64 13 13 21 29 41 47 47 54 62 81 81 65 75 65 136 275 263 275 246
45 39 31 23 18 18 19 21 23 25 27 28 28 32 43 61 76 94 109 112 110 110 106 99 102 55 62 56 26 19 22 39 48 52 56 53 56 54 78 58 47 74 10 339 288 278 307
45 40 30 24 19 19 21 24 26 27 28 28 29 32 37 52 72 92 115 119 113 102 75 97 60 74 80 32 23 29 33 47 53 51 62 54 55 54 48 85 30 39 49 11 320 186 25
45 37 29 25 21 21 22 25 28 29 29 26 27 29 32 44 70 107 108 117 100 82 61 51 39 64 45 24 18 19 22 31 42 45 54 46 51 57 41 69 23 16 300 312 319 215 30
45 39 31 25 22 22 23 26 28 27 25 23 23 23 29 32 64 112 117 109 72 5 251 13 31 72 29 2 20 14 8 26 34 71 48 37 51 58 28 46 161 297 333 306 249 285 226
48 40 30 23 21 21 22 24 26 24 23 20 18 18 19 35 53 156 152 288 307 56 63 71 47 42 0 359 11 16 23 13 20 46 37 22 60 30 307 299 246 232 238 251 252 252 298
43 37 28 21 19 19 20 20 22 20 19 18 16 15 16 28 22 318 246 266 311 135 75 52 40 31 16 4 356 16 21 55 42 35 351 24 29 287 287 25 303 265 250 277 291 246 232
31 27 21 17 14 15 16 16 16 15 13 13 13 13 15 3 347 2 27 177 144 122 83 26 24 13 6 1 21 1 15 29 52 45 23 108 318 332 8 11 354 288 228 254 256 313 256
21 12 12 11 11 10 10 11 9 9 8 7 7 8 7 4 3 357 42 141 139 81 73 313 350 2 352 351 19 6 13 28 39 58 14 30 321 358 328 40 88 308 215 314 294 355 272
2 5 3 5 9 9 7 7 4 3 1 1 2 2 3 4 356 360 355 161 134 76 24 320 325 337 350 44 333 7 9 23 72 338 64 284 333 331 304 280 163 246 347 281 275 194 10
341 345 347 356 360 2 4 3 2 358 356 354 355 357 356 1 9 25 98 148 120 45 261 356 329 356 12 7 2 337 4 34 64 102 359 257 273 225 267 301 229 303 352 65 53 88 12
320 330 334 341 345 351 357 360 358 355 351 349 350 351 353 3 5 55 122 123 37 134 23 351 352 26 347 320 354 25 26 10 49 31 7 332 260 283 265 330 13 18 23 344 353 359 234
294 309 319 332 338 341 348 352 353 352 347 347 345 347 351 1 7 74 146 52 175 167 222 19 9 331 5 13 354 354 65 24 35 77 79 44 327 225 37 151 256 337 113 135 289 278 288
276 297 313 321 328 332 336 342 346 346 344 342 342 341 327 358 355 8 131 67 226 202 140 132 28 33 321 303 242 25 315 202 214 161 114 36 275 282 215 161 124 131 114 179 249 303 346
276 289 301 311 316 321 326 330 334 341 340 338 340 334 251 351 345 305 87 235 217 198 147 96 194 176 248 272 348 17 212 195 195 201 179 197 297 232 328 109 67 178 161 357 30 307 287
275 283 291 299 305 306 316 324 328 333 335 335 336 320 276 336 328 206 179 224 215 204 185 166 202 216 225 246 212 241 240 233 187 188 172 145 145 289 345 199 184 73 286 103 151 168 237
277 282 286 290 297 300 308 316 322 328 332 332 333 323 287 323 296 37 176 196 200 191 197 225 215 213 201 186 243 246 229 226 183 162 178 194 165 250 237 201 175 197 218 163 147 252 235
272 287 291 287 283 290 301 310 318 326 333 336 325 279 272 282 236 266 271 270 225 175 222 194 233 208 172 209 235 208 247 326 176 163 175 187 250 314 327 22 56 215 200 211 247 143 232
271 272 276 281 282 291 295 302 314 323 329 327 312 333 260 235 220 159 196 241 245 218 248 205 242 137 144 243 227 284 258 235 200 208 221 178 195 200 237 239 182 226 223 212 218 238 258
266 266 271 278 281 285 292 303 312 319 321 317 281 265 287 298 316 252 189 206 205 238 216 210 255 211 180 224 219 223 227 278 204 225 189 173 235 220 242 262 266 263 261 251 233 243 241
263 263 268 272 275 282 288 293 297 303 303 284 261 245 272 280 286 266 208 237 216 220 162 234 214 200 190 212 201 216 197 200 218 171 169 193 260 219 264 237 246 263 257 253 246 249 247
263 269 271 274 276 281 285 287 284 278 271 254 241 243 234 262 271 134 232 226 232 181 235 234 218 174 203 231 242 256 257 257 245 181 195 180 202 182 274 191 292 274 241 234 223 220 224
264 267 270 272 275 275 276 282 287 284 271 254 248 235 193 260 206 214 257 234 246 237 251 277 226 189 252 247 266 269 259 258 250 243 217 203 181 192 268 38 272 269 179 170 202 215 202
265 263 261 261 265 273 266 270 272 273 270 265 252 237 222 245 249 276 266 263 277 275 239 243 254 246 254 228 329 319 294 296 253 226 215 220 224 238 250 230 285 301 246 178 176 264 142
264 262 258 258 257 263 265 264 260 264 263 261 258 242 226 246 229 262 275 270 249 250 293 235 251 258 198 132 127 238 248 241 280 286 34 192 248 221 195 237 253 1 302 2 294 272 146
269 267 262 260 254 255 259 265 267 253 249 252 256 246 226 241 244 253 240 255 257 279 258 283 268 196 202 179 205 221 242 200 236 238 188 161 212 226 239 251 250 220 159 64 141 307 164
267 266 265 265 261 258 256 255 251 261 256 252 258 252 234 244 258 245 247 236 253 257 254 244 335 223 165 221 227 233 239 216 289 281 197 203 194 215 240 251 270 147 82 206 131 172 201
271 271 267 264 265 262 259 258 251 249 255 251 248 248 245 240 256 256 251 257 253 258 278 255 256 205 225 209 230 254 267 254 250 268 307 264 215 238 212 228 142 194 218 225 270 220 214